Saguache, CO

2:47 PM MST on December 16, 2017 (GMT -0700)
Saguache

Weather History for K04V - May, 2013

Change the Weather History Date:

Tuesday, May 28, 2013

  Actual Average (KALS) Record (KALS)
Temperature  
Mean Temperature - -  
Max Temperature - 73 °F 86 °F (2000)
Min Temperature - 37 °F 21 °F (2012)
Moisture  
Dew Point -    
Average Humidity    
Maximum Humidity    
Minimum Humidity    
Precipitation  
Precipitation 0.00 in - - ()
Sea Level Pressure  
Sea Level Pressure 29.92 in    
Wind  
Wind Speed 10 mph (West)    
Max Wind Speed 20 mph    
Max Gust Speed 28 mph    
Visibility 10 miles    
Events      
Averages and records for this station are not official NWS values.
T = Trace of Precipitation, MM = Missing Value Source: NWS Daily Summary

Daily Weather History Graph

Daily Weather History Graph

Search for Another Location

Airport or City:

Trip Planner

Search our weather history database for the weather conditions in past years. The results will help you decide how hot, cold, wet, or windy it might be!

Date:

Astronomy

May. 28, 2013 Rise Set
Actual Time 5:45 AM MDT 8:19 PM MDT
Civil Twilight 5:14 AM MDT 8:49 PM MDT
Nautical Twilight 4:36 AM MDT 9:28 PM MDT
Astronomical Twilight 3:54 AM MDT 10:10 PM MDT
Moon 11:46 PM MDT (5/28) 9:35 AM MDT (5/28)
Length of Visible Light 15h 35m
Length of Day
14h 34m
Waning Gibbous, 82% of the Moon is Illuminated
May 28
Waning Gibbous
May 31
Last Quarter
Jun 8
New
Jun 16
First Quarter
Jun 23
Full

Hourly Weather History & Observations

Time (MDT) Temp. Dew Point Humidity Pressure Visibility Wind Dir Wind Speed Gust Speed Precip Events Conditions
12:13 AM - - N/A% 30.03 in 10.0 mi North 10.4 mph - N/A   Clear
12:33 AM - - N/A% 30.03 in 10.0 mi NNE 8.1 mph - N/A   Clear
12:54 AM - - N/A% 30.03 in 10.0 mi North 4.6 mph - N/A   Clear
1:14 AM - - N/A% 30.03 in 10.0 mi North 4.6 mph - N/A   Clear
1:34 AM - - N/A% 30.02 in 10.0 mi NNW 8.1 mph - N/A   Clear
1:54 AM - - N/A% 30.02 in 10.0 mi NNW 9.2 mph - N/A   Clear
2:14 AM - - N/A% 30.02 in 10.0 mi NW 12.7 mph - N/A   Clear
2:34 AM - - N/A% 30.02 in 10.0 mi NNW 10.4 mph - N/A   Clear
2:54 AM - - N/A% 30.01 in 10.0 mi North 10.4 mph - N/A   Clear
3:14 AM - - N/A% 30.01 in 10.0 mi NNW 10.4 mph - N/A   Clear
3:33 AM - - N/A% 30.00 in 10.0 mi NNW 12.7 mph - N/A   Clear
3:54 AM - - N/A% 30.01 in 10.0 mi NNW 9.2 mph - N/A   Clear
4:14 AM - - N/A% 30.01 in 10.0 mi WNW 3.5 mph - N/A   Clear
4:34 AM - - N/A% 30.01 in 10.0 mi East 5.8 mph - N/A   Clear
4:54 AM - - N/A% 30.01 in 10.0 mi NW 5.8 mph - N/A   Clear
5:14 AM - - N/A% 30.01 in 10.0 mi NNW 8.1 mph - N/A   Clear
5:34 AM - - N/A% 30.01 in 10.0 mi NW 10.4 mph - N/A   Clear
5:54 AM - - N/A% 30.01 in 10.0 mi NNW 9.2 mph - N/A   Clear
6:14 AM - - N/A% 30.01 in 10.0 mi NW 8.1 mph - N/A   Clear
6:34 AM - - N/A% 30.01 in 10.0 mi NW 10.4 mph - N/A   Clear
6:54 AM - - N/A% 30.01 in 10.0 mi NNW 9.2 mph - N/A   Clear
7:14 AM - - N/A% 30.02 in 10.0 mi NNW 6.9 mph - N/A   Clear
7:33 AM - - N/A% 30.02 in 10.0 mi NW 6.9 mph - N/A   Clear
7:54 AM - - N/A% 30.02 in 10.0 mi NW 4.6 mph - N/A   Clear
8:13 AM - - N/A% 30.02 in 10.0 mi Calm Calm - N/A   Clear
8:34 AM - - N/A% 30.02 in 10.0 mi Calm Calm - N/A   Clear
8:53 AM - - N/A% 30.01 in 10.0 mi Calm Calm - N/A   Clear
9:14 AM - - N/A% 30.00 in 10.0 mi Calm Calm - N/A   Clear
9:34 AM - - N/A% 30.00 in 10.0 mi SE 6.9 mph - N/A   Clear
9:54 AM - - N/A% 30.00 in 10.0 mi SE 5.8 mph - N/A   Clear
10:14 AM - - N/A% 29.98 in 10.0 mi SSE 11.5 mph - N/A   Clear
10:34 AM - - N/A% 29.98 in 10.0 mi SSE 13.8 mph - N/A   Clear
10:53 AM - - N/A% 29.97 in 10.0 mi SSE 12.7 mph - N/A   Clear
11:13 AM - - N/A% 29.96 in 10.0 mi South 16.1 mph - N/A   Clear
11:34 AM - - N/A% 29.95 in 10.0 mi SSE 13.8 mph 17.3 mph N/A   Clear
11:53 AM - - N/A% 29.94 in 10.0 mi South 16.1 mph 21.9 mph N/A   Clear
12:13 PM - - N/A% 29.93 in 10.0 mi South 16.1 mph 21.9 mph N/A   Clear
12:34 PM - - N/A% 29.92 in 10.0 mi South 10.4 mph 23.0 mph N/A   Clear
12:54 PM - - N/A% 29.92 in 10.0 mi SSE 15.0 mph 24.2 mph N/A   Clear
1:14 PM - - N/A% 29.90 in 10.0 mi SSE 15.0 mph 19.6 mph N/A   Clear
1:34 PM - - N/A% 29.90 in 10.0 mi South 12.7 mph 24.2 mph N/A   Clear
1:54 PM - - N/A% 29.88 in 10.0 mi SSW 11.5 mph 25.3 mph N/A   Clear
2:14 PM - - N/A% 29.87 in 10.0 mi SW 16.1 mph 21.9 mph N/A   Clear
2:34 PM - - N/A% 29.86 in 10.0 mi SSW 17.3 mph 24.2 mph N/A   Clear
2:54 PM - - N/A% 29.86 in 10.0 mi SSW 15.0 mph 26.5 mph N/A   Clear
3:13 PM - - N/A% 29.84 in 10.0 mi South 13.8 mph 24.2 mph N/A   Clear
3:34 PM - - N/A% 29.84 in 10.0 mi SW 9.2 mph 16.1 mph N/A   Clear
3:54 PM - - N/A% 29.83 in 10.0 mi South 9.2 mph 17.3 mph N/A   Clear
4:14 PM - - N/A% 29.82 in 10.0 mi SW 12.7 mph 19.6 mph N/A   Clear
4:34 PM - - N/A% 29.82 in 10.0 mi WSW 19.6 mph 24.2 mph N/A   Clear
4:54 PM - - N/A% 29.82 in 10.0 mi West 16.1 mph 27.6 mph N/A   Clear
5:14 PM - - N/A% 29.82 in 10.0 mi West 15.0 mph 18.4 mph N/A   Clear
5:34 PM - - N/A% 29.82 in 10.0 mi WSW 13.8 mph 25.3 mph N/A   Clear
5:54 PM - - N/A% 29.81 in 10.0 mi WSW 19.6 mph 25.3 mph N/A   Clear
6:14 PM - - N/A% 29.81 in 10.0 mi WSW 19.6 mph 26.5 mph N/A   Clear
6:34 PM - - N/A% 29.81 in 10.0 mi SW 18.4 mph 25.3 mph N/A   Clear
6:54 PM - - N/A% 29.81 in 10.0 mi SW 15.0 mph 21.9 mph N/A   Clear
7:14 PM - - N/A% 29.81 in 10.0 mi WSW 16.1 mph 21.9 mph N/A   Clear
7:34 PM - - N/A% 29.82 in 10.0 mi SW 15.0 mph 18.4 mph N/A   Clear
7:54 PM - - N/A% 29.82 in 10.0 mi SW 15.0 mph - N/A   Clear
8:14 PM - - N/A% 29.82 in 10.0 mi WSW 16.1 mph 21.9 mph N/A   Clear
8:34 PM - - N/A% 29.82 in 10.0 mi WSW 12.7 mph - N/A   Clear
8:54 PM - - N/A% 29.82 in 10.0 mi West 15.0 mph 21.9 mph N/A   Clear
9:13 PM - - N/A% 29.83 in 10.0 mi WSW 10.4 mph - N/A   Clear
9:34 PM - - N/A% 29.84 in 10.0 mi West 12.7 mph - N/A   Clear
9:54 PM - - N/A% 29.84 in 10.0 mi WNW 5.8 mph - N/A   Clear
10:14 PM - - N/A% 29.84 in 10.0 mi NE 4.6 mph - N/A   Clear
10:34 PM - - N/A% 29.84 in 10.0 mi Calm Calm - N/A   Clear
10:53 PM - - N/A% 29.84 in 10.0 mi Calm Calm - N/A   Clear
11:14 PM - - N/A% 29.84 in 10.0 mi West 4.6 mph - N/A   Clear
11:33 PM - - N/A% 29.83 in 10.0 mi NW 5.8 mph - N/A   Clear
11:54 PM - - N/A% 29.83 in 10.0 mi North 5.8 mph - N/A   Clear